Location: ?????
(42.2640°N, 43.4211°E)
Time: 14:15:52
(UTC+00:00)

ADEOS II - Pass Details

Date: 07 August 2020
Orbit: 799 x 802 km, 98.5° (Epoch: 19 September)

Event Time Altitude Azimuth Distance (km) Brightness Sun altitude
Rises 00:37:54 0° 1° (N) 3,319 5.9 -14.7°
Reaches altitude 10° 00:40:37 10° 348° (NNW) 2,384 4.9 -14.3°
Maximum altitude 00:44:46 24° 296° (WNW) 1,595 3.4 -13.7°
Enters shadow 00:47:27 16° 256° (WSW) 1,959 3.6 -13.3°
